Theta_e
300 297 297 298 315 320 324 326 322 316 322 323 330 345 344 348 349 349 351 357 361 365 366 366 365 364 363 362 363 363 363 363
297 296 303 305 318 327 324 325 323 322 320 328 348 346 347 349 350 348 350 355 362 364 365 365 365 364 364 363 363 363 363 363
296 298 305 310 321 324 323 318 320 324 322 328 350 351 349 350 349 346 348 353 357 362 364 364 364 365 364 363 363 362 363 363
294 300 307 311 313 323 320 322 327 330 331 337 350 349 349 350 347 346 346 352 354 361 362 362 363 363 362 362 362 362 362 362
298 301 304 309 317 319 317 319 321 328 330 336 343 347 350 349 347 348 348 350 352 356 359 361 361 361 361 360 360 360 360 360
299 301 302 310 314 321 319 315 329 337 327 330 340 347 351 350 349 348 348 348 349 354 354 353 355 360 360 359 359 359 359 359
298 301 305 311 309 319 323 323 322 325 336 341 345 344 349 348 348 348 349 348 349 348 349 349 352 355 359 359 360 359 357 357
306 308 307 309 309 314 313 314 321 328 340 343 343 341 340 345 345 346 347 349 349 349 348 350 352 352 352 353 352 352 353 351
309 310 312 309 307 314 311 308 324 330 333 337 338 336 338 340 346 347 349 351 352 352 353 352 351 352 352 353 353 355 357 344
309 311 309 307 309 308 312 311 328 329 331 332 332 331 335 331 341 347 349 350 349 351 352 352 355 352 352 349 347 336 330 329
309 311 310 310 306 307 307 316 329 328 328 329 329 330 333 334 346 349 349 337 332 331 328 327 326 324 325 325 327 330 327 328
308 307 308 305 307 308 309 316 325 326 324 325 326 329 327 337 344 342 333 330 329 329 328 330 328 325 327 322 327 327 325 329
306 307 304 306 302 303 309 316 323 322 321 322 324 326 324 330 336 335 331 329 328 326 331 329 327 327 323 326 329 325 325 326
302 305 306 304 298 305 309 313 318 319 319 318 318 320 322 331 331 331 329 327 325 332 330 327 326 327 324 328 325 328 327 325
299 305 305 302 298 306 310 309 313 315 314 315 314 316 320 331 331 327 326 324 322 327 326 330 326 328 326 325 325 324 326 323
296 302 303 299 299 305 308 307 308 313 314 313 312 314 317 328 328 325 324 323 325 325 327 327 329 327 324 327 324 324 323 322
300 304 302 300 300 303 307 305 304 306 312 312 310 314 317 324 325 325 324 323 325 326 327 326 324 324 322 320 322 323 321 322
298 302 301 302 303 304 306 305 304 305 307 310 310 313 315 320 323 324 324 324 326 326 327 326 324 324 323 324 321 324 322 321
295 300 300 298 300 302 305 305 308 308 309 310 311 313 313 319 322 323 323 325 327 327 327 326 326 327 324 322 321 319 320 321
298 295 289 296 287 297 300 303 305 305 307 307 311 312 313 318 320 322 324 325 328 329 328 327 328 323 319 316 315 319 320 322
Wind_Speed
5 4 9 4 8 16 31 26 10 10 8 6 7 13 7 20 19 17 12 10 12 17 17 16 15 15 14 13 13 13 13 12
1 10 20 6 22 12 21 18 6 12 10 6 8 11 16 24 22 17 13 9 12 14 14 14 14 14 13 13 12 12 11 10
4 10 16 16 20 30 31 7 17 11 7 7 8 25 25 24 20 19 13 9 8 14 14 13 14 13 12 12 11 10 10 10
5 11 17 16 7 15 11 25 20 19 13 6 11 18 18 22 20 17 16 11 9 13 13 12 12 12 11 10 10 10 9 9
9 15 20 16 6 9 15 17 11 19 16 9 8 12 23 23 21 19 17 14 9 8 12 13 11 11 11 10 10 9 8 8
7 12 19 15 8 10 14 6 20 21 10 13 12 15 23 21 19 17 14 17 15 11 10 8 7 11 10 9 9 9 8 7
10 14 19 15 14 2 9 24 6 6 17 22 17 18 20 19 18 15 13 12 11 12 10 11 9 9 9 10 9 8 7 8
10 18 17 16 18 5 9 11 18 18 18 21 20 17 19 20 18 16 16 15 13 13 11 11 9 8 7 7 4 5 5 5
13 20 15 21 14 9 17 7 21 28 23 20 12 13 14 20 23 22 20 15 15 14 13 10 8 5 3 3 3 3 4 3
18 23 17 18 10 10 3 10 23 22 19 14 10 9 9 8 19 23 20 16 10 12 8 8 7 5 6 4 3 3 5 7
14 24 20 17 6 9 7 16 23 24 20 15 10 8 10 11 20 21 20 15 12 11 9 6 9 5 5 5 5 5 5 6
16 13 16 10 6 3 14 8 20 22 16 13 12 10 5 18 22 19 18 14 11 10 8 8 7 8 5 5 6 6 5 5
13 15 12 5 9 8 13 4 23 18 14 10 10 10 10 10 19 20 16 15 11 10 8 8 8 7 5 3 6 5 5 6
11 7 8 8 12 8 12 13 19 19 14 10 9 11 12 15 14 14 17 16 10 11 9 9 6 5 5 5 5 5 5 5
9 9 6 9 7 10 2 8 16 17 12 10 8 7 10 17 17 15 14 13 10 12 9 8 6 5 6 7 5 5 5 5
9 7 9 10 9 8 7 7 12 16 16 13 11 10 13 17 16 15 12 10 12 9 10 9 6 5 4 4 3 5 5 5
11 15 13 11 9 16 16 7 8 10 15 14 13 12 16 18 18 17 13 11 13 11 9 7 3 4 4 4 3 3 4 7
11 9 14 18 25 11 16 10 12 10 9 14 10 15 16 19 17 19 18 14 11 11 9 8 5 3 4 4 2 4 4 5
14 17 8 6 20 20 17 8 19 15 16 13 16 20 18 20 20 19 19 17 15 11 10 9 7 4 4 5 4 3 2 3
16 6 7 5 7 6 8 8 5 8 15 14 18 16 20 21 20 22 20 18 17 15 10 7 8 5 7 5 5 4 4 4
Wind_Direction
170 214 228 257 134 158 219 220 236 105 73 79 119 105 99 129 130 114 103 107 120 121 124 126 128 130 134 136 137 136 139 140
110 264 272 238 147 188 265 222 108 107 69 49 99 111 134 131 119 110 106 104 117 117 119 123 125 128 132 136 137 138 138 137
246 267 273 277 167 148 193 176 110 102 107 107 103 123 131 125 119 116 115 114 111 117 119 122 126 126 128 131 132 136 139 141
261 270 266 276 239 149 146 116 108 95 104 99 120 127 128 122 117 121 123 119 116 117 118 122 125 125 126 127 132 137 143 147
279 283 296 287 248 143 136 129 122 135 123 143 134 155 119 123 127 132 132 123 125 120 122 119 120 124 128 133 137 141 145 153
272 282 281 290 310 160 139 150 132 134 150 159 161 129 128 136 135 135 141 141 145 143 138 126 129 129 132 134 136 142 150 157
264 275 281 312 327 272 98 121 118 159 141 148 156 142 138 135 137 139 139 135 141 150 153 142 138 146 143 149 153 160 165 167
242 268 284 302 328 182 103 114 113 119 132 143 156 163 153 151 154 147 147 150 159 156 157 151 149 158 163 166 170 183 181 186
269 276 298 302 313 322 127 113 127 134 143 154 161 166 172 165 161 155 155 158 166 155 156 158 144 161 153 159 179 194 154 120
263 272 284 287 302 320 262 163 137 138 147 152 158 164 179 166 145 150 154 155 126 142 148 150 139 178 167 160 135 122 83 66
250 277 271 280 284 282 309 160 148 147 151 157 166 173 177 142 133 140 140 120 111 111 108 123 119 139 116 120 111 112 88 67
251 224 263 278 268 335 286 199 145 147 154 160 161 172 132 116 132 131 122 116 117 107 103 107 100 94 99 106 103 105 93 92
252 241 248 252 285 266 270 125 145 146 151 155 169 154 128 123 132 131 129 127 122 117 107 95 102 103 114 116 109 103 105 101
257 254 235 165 249 259 277 162 150 152 159 160 173 147 127 127 123 120 130 133 138 118 116 110 123 123 112 108 109 118 113 93
272 257 241 180 229 258 227 159 157 156 159 157 167 133 128 137 130 133 132 133 116 121 128 139 136 124 116 108 108 109 107 95
251 261 259 252 233 246 223 213 168 163 166 172 168 162 144 138 129 133 135 127 125 134 139 149 132 121 102 92 115 105 122 111
225 231 223 264 244 217 236 160 241 169 173 175 173 170 149 144 137 138 141 129 138 141 156 143 141 130 125 150 150 117 132 129
284 268 216 224 232 239 207 216 183 207 187 177 168 156 155 148 148 154 154 148 137 154 156 155 149 153 148 153 161 153 145 137
248 274 267 224 241 241 206 210 221 197 195 189 178 167 165 158 159 156 159 158 151 161 159 162 159 122 94 80 66 88 159 135
239 247 243 153 262 245 188 196 225 199 203 191 191 172 168 165 164 164 168 162 152 153 158 167 152 145 145 151 157 199 177 161